Weather History for Clinton-Sherman, OK

Change the Weather History Date:

Sunday, January 13, 2013

  Actual Average Record
Temperature  
Mean Temperature 24 °F -  
Max Temperature 30 °F 46 °F 64 °F (2002)
Min Temperature 16 °F 27 °F 10 °F (1997)
Degree Days  
Heating Degree Days 42    
Moisture  
Dew Point 10 °F    
Average Humidity 60    
Maximum Humidity 77    
Minimum Humidity 40    
Precipitation  
Precipitation 0.00 in - - ()
Sea Level Pressure  
Sea Level Pressure 30.29 in    
Wind  
Wind Speed 16 mph (North)    
Max Wind Speed 22 mph    
Max Gust Speed 30 mph    
Visibility 10 miles    
Events      
Averages and records for this station are not official NWS values.
T = Trace of Precipitation, MM = Missing Value Source: NWS Daily Summary

Daily Weather History Graph

Daily Weather History Graph

Search for Another Location

Airport:

Trip Planner

Search our weather history database for the weather conditions in past years. The results will help you decide how hot, cold, wet, or windy it might be!

Date:

Astronomy

Jan. 13, 2013 Rise Set
Actual Time 7:45 AM CST 5:46 PM CST
Civil Twilight 7:17 AM CST 6:13 PM CST
Nautical Twilight 6:46 AM CST 6:45 PM CST
Astronomical Twilight 6:15 AM CST 7:15 PM CST
Moon 8:51 AM CST (1/13) 8:19 PM CST (1/13)
Length of Visible Light 10h 55m
Length of Day
10h 00m
Waxing Crescent, 5% of the Moon is Illuminated
Jan 13
Waxing Crescent
Jan 18
First Quarter
Jan 26
Full
Feb 3
Last Quarter
Feb 10
New

Hourly Weather History & Observations

Time (CST) Temp. Windchill Dew Point Humidity Pressure Visibility Wind Dir Wind Speed Gust Speed Precip Events Conditions
12:53 AM 24.1 °F 10.6 °F 14.0 °F 65% 30.14 in 10.0 mi North 17.3 mph - N/A   Clear
1:53 AM 21.9 °F 6.5 °F 10.9 °F 63% 30.14 in 10.0 mi North 20.7 mph 29.9 mph N/A   Mostly Cloudy
2:53 AM 21.0 °F 5.7 °F 10.9 °F 65% 30.17 in 10.0 mi North 19.6 mph 29.9 mph N/A   Clear
3:53 AM 21.0 °F 5.0 °F 10.0 °F 63% 30.19 in 10.0 mi North 21.9 mph - N/A   Clear
4:53 AM 19.9 °F 3.5 °F 9.0 °F 62% 30.21 in 10.0 mi North 21.9 mph 27.6 mph N/A   Mostly Cloudy
5:53 AM 19.0 °F 2.4 °F 9.0 °F 65% 30.22 in 10.0 mi North 21.9 mph - N/A   Mostly Cloudy
6:53 AM 19.0 °F 4.0 °F 9.0 °F 65% 30.26 in 10.0 mi North 17.3 mph 26.5 mph N/A   Mostly Cloudy
7:53 AM 17.1 °F 1.0 °F 9.0 °F 71% 30.32 in 10.0 mi NNW 18.4 mph 24.2 mph N/A   Clear
8:53 AM 19.0 °F 2.7 °F 8.1 °F 62% 30.35 in 10.0 mi North 20.7 mph 27.6 mph N/A   Mostly Cloudy
9:53 AM 21.0 °F 5.4 °F 8.1 °F 57% 30.36 in 10.0 mi North 20.7 mph - N/A   Clear
10:53 AM 23.0 °F 9.2 °F 8.1 °F 53% 30.35 in 10.0 mi North 17.3 mph - N/A   Clear
11:53 AM 26.1 °F 15.0 °F 8.1 °F 47% 30.33 in 10.0 mi North 12.7 mph - N/A   Clear
12:53 PM 28.0 °F 17.0 °F 8.1 °F 43% 30.30 in 10.0 mi North 13.8 mph - N/A   Clear
1:53 PM 28.9 °F 17.7 °F 8.1 °F 41% 30.27 in 10.0 mi NNE 15.0 mph - N/A   Clear
2:53 PM 30.0 °F 21.7 °F 8.1 °F 40% 30.27 in 10.0 mi NNE 9.2 mph - N/A   Clear
4:53 PM 30.0 °F 21.7 °F 8.1 °F 40% 30.30 in 10.0 mi NNE 9.2 mph - N/A   Clear
5:53 PM 26.1 °F 17.6 °F 10.9 °F 53% 30.32 in 10.0 mi NNE 8.1 mph - N/A   Clear
6:53 PM 21.9 °F 14.5 °F 10.9 °F 63% 30.34 in 10.0 mi North 5.8 mph - N/A   Clear
7:53 PM 23.0 °F 13.9 °F 12.9 °F 65% 30.32 in 10.0 mi NE 8.1 mph - N/A   Clear
8:53 PM 19.0 °F 10.0 °F 12.0 °F 74% 30.33 in 10.0 mi NNE 6.9 mph - N/A   Clear
9:53 PM 18.0 °F 8.7 °F 10.9 °F 74% 30.35 in 10.0 mi North 6.9 mph - N/A   Clear
10:53 PM 18.0 °F 9.8 °F 10.9 °F 74% 30.38 in 10.0 mi NNE 5.8 mph - N/A   Clear
11:53 PM 16.0 °F 7.4 °F 10.0 °F 77% 30.40 in 10.0 mi NNE 5.8 mph - N/A   Clear